STARLINK-35578 (66168 NORAD) Tracking and Keplerian Element Data

This shows tracking and keplerian element data for the satellite.

Feedback or suggestion? Click here.




ElementValue
Catalog66168
NameSTARLINK-35578
Epoch Orbit973
Epoch Day353.6437263
Epoch Year2025
RAAN74.5633
Inclination53.1614
Eccentricity0.0001278
Argument of Perigee85.6199
Mean Anonmoly274.4947
Mean Motion15.3022539
Decay Rate0.00027458
L11 66168U 25240Y 25353.64372630 .00027458 00000+0 93504-3 0 9998
L22 66168 53.1614 74.5633 0001278 85.6199 274.4947 15.30225390 9739



Live tracking and technical data element details for STARLINK-35578 (NORAD 66168). STARLINK-35578 can be tracked NOW for your location showing map with azimuth and elevation plus other details from your city location.







IsCatalogInMostPopularTable: catalog: 66168, numindb: 8
Update: records affected: 1



GetName: 66168 STARLINK-35578

Hit Count: updated at: Wed, 15 Apr 2026 00:55:00 GMT